Tracking 22130 objects as of 21-Jan-2021
HD Live streaming from Space Station
objects crossing your sky now

SL-14 R/B

Track SL-14 R/B now!
10-day predictions
SL-14 R/B is classified as:


NORAD ID: 18153
Int'l Code: 1987-055B
Perigee: 609.9 km
Apogee: 642.2 km
Inclination: 82.5 °
Period: 97.1 minutes
Semi major axis: 6997 km
RCS: 4.7715 m2 (large)
Launch date: July 1, 1987
Source: Commonwealth of Independent States (former USSR) (CIS)
Launch site: PLESETSK MISSILE AND SPACE COMPLEX (PKMTR)

Note: This is a ROCKET BODY
aabbcc
Your satellite tracking list
Your tracking list is empty




NASA's NSSDC Master Catalog

Two Line Element Set (TLE):
1 18153U 87055B   21020.74448886  .00000087  00000-0  76372-5 0  9992
2 18153  82.5020 311.1370 0023096  76.9782 283.4009 14.83311969791998
Source of the keplerian elements: AFSPC